Year,Month,Day,Hour,Minute,Value (Times are PST for temperature in C)
2010,04,15,00,00,7.20
2010,04,15,00,01,7.20
2010,04,15,00,02,7.20
2010,04,15,00,03,7.20
2010,04,15,00,04,7.20
2010,04,15,00,05,7.20
2010,04,15,00,06,7.20
2010,04,15,00,07,7.20
2010,04,15,00,08,7.20
2010,04,15,00,09,7.20
2010,04,15,00,10,7.20
2010,04,15,00,11,7.20
2010,04,15,00,12,7.20
2010,04,15,00,13,7.20
2010,04,15,00,14,7.20
2010,04,15,00,15,7.10
2010,04,15,00,16,7.10
2010,04,15,00,17,7.10
2010,04,15,00,18,7.10
2010,04,15,00,19,7.10
2010,04,15,00,20,7.10
2010,04,15,00,21,7.10
2010,04,15,00,22,7.00
2010,04,15,00,23,7.00
2010,04,15,00,24,7.00
2010,04,15,00,25,7.00
2010,04,15,00,26,7.00
2010,04,15,00,27,7.00
2010,04,15,00,28,7.00
2010,04,15,00,29,7.00
2010,04,15,00,30,7.00
2010,04,15,00,31,7.00
2010,04,15,00,32,7.00
2010,04,15,00,33,7.00
2010,04,15,00,34,7.00
2010,04,15,00,35,7.00
2010,04,15,00,36,6.90
2010,04,15,00,37,6.90
2010,04,15,00,38,6.90
2010,04,15,00,39,6.90
2010,04,15,00,40,6.90
2010,04,15,00,41,6.90
2010,04,15,00,42,6.90
2010,04,15,00,43,6.90
2010,04,15,00,44,6.80
2010,04,15,00,45,6.80
2010,04,15,00,46,6.80
2010,04,15,00,47,6.80
2010,04,15,00,48,6.80
2010,04,15,00,49,6.80
2010,04,15,00,50,6.80
2010,04,15,00,51,6.80
2010,04,15,00,52,6.70
2010,04,15,00,53,6.70
2010,04,15,00,54,6.70
2010,04,15,00,55,6.70
2010,04,15,00,56,6.70
2010,04,15,00,57,6.80
2010,04,15,00,58,6.80
2010,04,15,00,59,6.80
2010,04,15,01,00,6.80
2010,04,15,01,01,6.80
2010,04,15,01,02,6.80
2010,04,15,01,03,6.80
2010,04,15,01,04,6.80
2010,04,15,01,05,6.90
2010,04,15,01,06,6.90
2010,04,15,01,07,6.90
2010,04,15,01,08,6.90
2010,04,15,01,09,6.90
2010,04,15,01,10,6.90
2010,04,15,01,11,6.90
2010,04,15,01,12,6.90
2010,04,15,01,13,6.90
2010,04,15,01,14,6.90
2010,04,15,01,15,7.00
2010,04,15,01,16,7.00
2010,04,15,01,17,7.00
2010,04,15,01,18,7.00
2010,04,15,01,19,7.00
2010,04,15,01,20,7.00
2010,04,15,01,21,7.00
2010,04,15,01,22,7.00
2010,04,15,01,23,7.00
2010,04,15,01,24,7.00
2010,04,15,01,25,7.00
2010,04,15,01,26,7.00
2010,04,15,01,27,7.00
2010,04,15,01,28,7.00
2010,04,15,01,29,7.00
2010,04,15,01,30,7.00
2010,04,15,01,31,7.00
2010,04,15,01,32,7.00
2010,04,15,01,33,7.00
2010,04,15,01,34,7.00
2010,04,15,01,35,7.00
2010,04,15,01,36,7.00
2010,04,15,01,37,6.90
2010,04,15,01,38,6.90
2010,04,15,01,39,6.90
2010,04,15,01,40,6.90
2010,04,15,01,41,6.90
2010,04,15,01,42,6.90
2010,04,15,01,43,6.80
2010,04,15,01,44,6.80
2010,04,15,01,45,6.80
2010,04,15,01,46,6.80
2010,04,15,01,47,6.70
2010,04,15,01,48,6.70
2010,04,15,01,49,6.60
2010,04,15,01,50,6.60
2010,04,15,01,51,6.60
2010,04,15,01,52,6.50
2010,04,15,01,53,6.50
2010,04,15,01,54,6.50
2010,04,15,01,55,6.40
2010,04,15,01,56,6.40
2010,04,15,01,57,6.40
2010,04,15,01,58,6.40
2010,04,15,01,59,6.40
2010,04,15,02,00,6.40
2010,04,15,02,01,6.40
2010,04,15,02,02,6.30
2010,04,15,02,03,6.30
2010,04,15,02,04,6.30
2010,04,15,02,05,6.40
2010,04,15,02,06,6.40
2010,04,15,02,07,6.30
2010,04,15,02,08,6.30
2010,04,15,02,09,6.30
2010,04,15,02,10,6.30
2010,04,15,02,11,6.30
2010,04,15,02,12,6.30
2010,04,15,02,13,6.30
2010,04,15,02,14,6.30
2010,04,15,02,15,6.30
2010,04,15,02,16,6.20
2010,04,15,02,17,6.20
2010,04,15,02,18,6.20
2010,04,15,02,19,6.10
2010,04,15,02,20,6.10
2010,04,15,02,21,6.10
2010,04,15,02,22,6.10
2010,04,15,02,23,6.10
2010,04,15,02,24,6.10
2010,04,15,02,25,6.10
2010,04,15,02,26,6.10
2010,04,15,02,27,6.10
2010,04,15,02,28,6.10
2010,04,15,02,29,6.10
2010,04,15,02,30,6.10
2010,04,15,02,31,6.20
2010,04,15,02,32,6.20
2010,04,15,02,33,6.20
2010,04,15,02,34,6.20
2010,04,15,02,35,6.20
2010,04,15,02,36,6.30
2010,04,15,02,37,6.30
2010,04,15,02,38,6.30
2010,04,15,02,39,6.30
2010,04,15,02,40,6.30
2010,04,15,02,41,6.30
2010,04,15,02,42,6.30
2010,04,15,02,43,6.40
2010,04,15,02,44,6.40
2010,04,15,02,45,6.40
2010,04,15,02,46,6.40
2010,04,15,02,47,6.40
2010,04,15,02,48,6.40
2010,04,15,02,49,6.40
2010,04,15,02,50,6.50
2010,04,15,02,51,6.50
2010,04,15,02,52,6.50
2010,04,15,02,53,6.50
2010,04,15,02,54,6.60
2010,04,15,02,55,6.60
2010,04,15,02,56,6.60
2010,04,15,02,57,6.60
2010,04,15,02,58,6.60
2010,04,15,02,59,6.60
2010,04,15,03,00,6.50
2010,04,15,03,01,6.60
2010,04,15,03,02,6.60
2010,04,15,03,03,6.60
2010,04,15,03,04,6.60
2010,04,15,03,05,6.60
2010,04,15,03,06,6.60
2010,04,15,03,07,6.60
2010,04,15,03,08,6.60
2010,04,15,03,09,6.70
2010,04,15,03,10,6.70
2010,04,15,03,11,6.70
2010,04,15,03,12,6.70
2010,04,15,03,13,6.70
2010,04,15,03,14,6.70
2010,04,15,03,15,6.70
2010,04,15,03,16,6.70
2010,04,15,03,17,6.70
2010,04,15,03,18,6.80
2010,04,15,03,19,6.80
2010,04,15,03,20,6.80
2010,04,15,03,21,6.80
2010,04,15,03,22,6.80
2010,04,15,03,23,6.80
2010,04,15,03,24,6.90
2010,04,15,03,25,6.90
2010,04,15,03,26,6.90
2010,04,15,03,27,6.90
2010,04,15,03,28,6.90
2010,04,15,03,29,6.90
2010,04,15,03,30,6.90
2010,04,15,03,31,6.90
2010,04,15,03,32,6.90
2010,04,15,03,33,6.90
2010,04,15,03,34,6.90
2010,04,15,03,35,6.90
2010,04,15,03,36,6.90
2010,04,15,03,37,6.90
2010,04,15,03,38,6.90
2010,04,15,03,39,6.90
2010,04,15,03,40,6.90
2010,04,15,03,41,6.90
2010,04,15,03,42,6.90
2010,04,15,03,43,6.90
2010,04,15,03,44,6.90
2010,04,15,03,45,6.90
2010,04,15,03,46,6.90
2010,04,15,03,47,6.90
2010,04,15,03,48,6.90
2010,04,15,03,49,6.90
2010,04,15,03,50,6.90
2010,04,15,03,51,6.90
2010,04,15,03,52,6.90
2010,04,15,03,53,6.90
2010,04,15,03,54,6.90
2010,04,15,03,55,6.90
2010,04,15,03,56,6.90
2010,04,15,03,57,6.90
2010,04,15,03,58,6.90
2010,04,15,03,59,6.90
2010,04,15,04,00,6.90
2010,04,15,04,01,6.90
2010,04,15,04,02,6.90
2010,04,15,04,03,6.90
2010,04,15,04,04,6.90
2010,04,15,04,05,6.90
2010,04,15,04,06,6.90
2010,04,15,04,07,6.90
2010,04,15,04,08,6.90
2010,04,15,04,09,6.90
2010,04,15,04,10,7.00
2010,04,15,04,11,7.00
2010,04,15,04,12,7.00
2010,04,15,04,13,7.00
2010,04,15,04,14,7.00
2010,04,15,04,15,7.00
2010,04,15,04,16,7.00
2010,04,15,04,17,7.10
2010,04,15,04,18,7.10
2010,04,15,04,19,7.10
2010,04,15,04,20,7.10
2010,04,15,04,21,7.10
2010,04,15,04,22,7.10
2010,04,15,04,23,7.10
2010,04,15,04,24,7.10
2010,04,15,04,25,7.20
2010,04,15,04,26,7.20
2010,04,15,04,27,7.20
2010,04,15,04,28,7.20
2010,04,15,04,29,7.20
2010,04,15,04,30,7.20
2010,04,15,04,31,7.20
2010,04,15,04,32,7.20
2010,04,15,04,33,7.20
2010,04,15,04,34,7.20
2010,04,15,04,35,7.20
2010,04,15,04,36,7.20
2010,04,15,04,37,7.20
2010,04,15,04,38,7.20
2010,04,15,04,39,7.20
2010,04,15,04,40,7.20
2010,04,15,04,41,7.10
2010,04,15,04,42,7.10
2010,04,15,04,43,7.10
2010,04,15,04,44,7.10
2010,04,15,04,45,7.10
2010,04,15,04,46,7.10
2010,04,15,04,47,7.10
2010,04,15,04,48,7.10
2010,04,15,04,49,7.10
2010,04,15,04,50,7.10
2010,04,15,04,51,7.10
2010,04,15,04,52,7.00
2010,04,15,04,53,7.00
2010,04,15,04,54,7.00
2010,04,15,04,55,7.00
2010,04,15,04,56,7.00
2010,04,15,04,57,7.00
2010,04,15,04,58,7.00
2010,04,15,04,59,7.00
2010,04,15,05,00,7.00
2010,04,15,05,01,7.00
2010,04,15,05,02,7.00
2010,04,15,05,03,7.00
2010,04,15,05,04,6.90
2010,04,15,05,05,6.90
2010,04,15,05,06,6.90
2010,04,15,05,07,6.90
2010,04,15,05,08,6.90
2010,04,15,05,09,6.90
2010,04,15,05,10,6.80
2010,04,15,05,11,6.80
2010,04,15,05,12,6.80
2010,04,15,05,13,6.80
2010,04,15,05,14,6.80
2010,04,15,05,15,6.70
2010,04,15,05,16,6.70
2010,04,15,05,17,6.70
2010,04,15,05,18,6.70
2010,04,15,05,19,6.70
2010,04,15,05,20,6.70
2010,04,15,05,21,6.70
2010,04,15,05,22,6.70
2010,04,15,05,23,6.60
2010,04,15,05,24,6.60
2010,04,15,05,25,6.60
2010,04,15,05,26,6.60
2010,04,15,05,27,6.60
2010,04,15,05,28,6.60
2010,04,15,05,29,6.60
2010,04,15,05,30,6.60
2010,04,15,05,31,6.50
2010,04,15,05,32,6.50
2010,04,15,05,33,6.40
2010,04,15,05,34,6.40
2010,04,15,05,35,6.40
2010,04,15,05,36,6.40
2010,04,15,05,37,6.40
2010,04,15,05,38,6.40
2010,04,15,05,39,6.40
2010,04,15,05,40,6.40
2010,04,15,05,41,6.40
2010,04,15,05,42,6.30
2010,04,15,05,43,6.30
2010,04,15,05,44,6.30
2010,04,15,05,45,6.30
2010,04,15,05,46,6.30
2010,04,15,05,47,6.30
2010,04,15,05,48,6.30
2010,04,15,05,49,6.30
2010,04,15,05,50,6.30
2010,04,15,05,51,6.30
2010,04,15,05,52,6.30
2010,04,15,05,53,6.30
2010,04,15,05,54,6.30
2010,04,15,05,55,6.30
2010,04,15,05,56,6.20
2010,04,15,05,57,6.20
2010,04,15,05,58,6.20
2010,04,15,05,59,6.20
2010,04,15,06,00,6.20
2010,04,15,06,01,6.20
2010,04,15,06,02,6.20
2010,04,15,06,03,6.20
2010,04,15,06,04,6.10
2010,04,15,06,05,6.10
2010,04,15,06,06,6.10
2010,04,15,06,07,6.10
2010,04,15,06,08,6.10
2010,04,15,06,09,6.10
2010,04,15,06,10,6.10
2010,04,15,06,11,6.10
2010,04,15,06,12,6.10
2010,04,15,06,13,6.10
2010,04,15,06,14,6.10
2010,04,15,06,15,6.00
2010,04,15,06,16,6.00
2010,04,15,06,17,6.00
2010,04,15,06,18,6.00
2010,04,15,06,19,6.00
2010,04,15,06,20,6.00
2010,04,15,06,21,6.00
2010,04,15,06,22,6.00
2010,04,15,06,23,5.90
2010,04,15,06,24,5.90
2010,04,15,06,25,5.90
2010,04,15,06,26,5.90
2010,04,15,06,27,5.90
2010,04,15,06,28,5.90
2010,04,15,06,29,5.90
2010,04,15,06,30,5.90
2010,04,15,06,31,5.90
2010,04,15,06,32,5.90
2010,04,15,06,33,5.90
2010,04,15,06,34,5.90
2010,04,15,06,35,5.90
2010,04,15,06,36,5.80
2010,04,15,06,37,5.80
2010,04,15,06,38,5.80
2010,04,15,06,39,5.80
2010,04,15,06,40,5.80
2010,04,15,06,41,5.80
2010,04,15,06,42,5.80
2010,04,15,06,43,5.80
2010,04,15,06,44,5.80
2010,04,15,06,45,5.80
2010,04,15,06,46,5.80
2010,04,15,06,47,5.80
2010,04,15,06,48,5.80
2010,04,15,06,49,5.80
2010,04,15,06,50,5.70
2010,04,15,06,51,5.70
2010,04,15,06,52,5.70
2010,04,15,06,53,5.70
2010,04,15,06,54,5.70
2010,04,15,06,55,5.70
2010,04,15,06,56,5.60
2010,04,15,06,57,5.60
2010,04,15,06,58,5.60
2010,04,15,06,59,5.60
2010,04,15,07,00,5.60
2010,04,15,07,01,5.60
2010,04,15,07,02,5.60
2010,04,15,07,03,5.70
2010,04,15,07,04,5.70
2010,04,15,07,05,5.70
2010,04,15,07,06,5.70
2010,04,15,07,07,5.70
2010,04,15,07,08,5.70
2010,04,15,07,09,5.70
2010,04,15,07,10,5.70
2010,04,15,07,11,5.70
2010,04,15,07,12,5.70
2010,04,15,07,13,5.70
2010,04,15,07,14,5.70
2010,04,15,07,15,5.70
2010,04,15,07,16,5.70
2010,04,15,07,17,5.70
2010,04,15,07,18,5.70
2010,04,15,07,19,5.80
2010,04,15,07,20,5.80
2010,04,15,07,21,5.80
2010,04,15,07,22,5.80
2010,04,15,07,23,5.80
2010,04,15,07,24,5.80
2010,04,15,07,25,5.80
2010,04,15,07,26,5.90
2010,04,15,07,27,5.90
2010,04,15,07,28,5.90
2010,04,15,07,29,5.90
2010,04,15,07,30,5.90
2010,04,15,07,31,6.00
2010,04,15,07,32,6.00
2010,04,15,07,33,6.10
2010,04,15,07,34,6.10
2010,04,15,07,35,6.10
2010,04,15,07,36,6.20
2010,04,15,07,37,6.20
2010,04,15,07,38,6.30
2010,04,15,07,39,6.30
2010,04,15,07,40,6.30
2010,04,15,07,41,6.30
2010,04,15,07,42,6.40
2010,04,15,07,43,6.40
2010,04,15,07,44,6.40
2010,04,15,07,45,6.50
2010,04,15,07,46,6.50
2010,04,15,07,47,6.60
2010,04,15,07,48,6.60
2010,04,15,07,49,6.70
2010,04,15,07,50,6.70
2010,04,15,07,51,6.70
2010,04,15,07,52,6.80
2010,04,15,07,53,6.80
2010,04,15,07,54,6.80
2010,04,15,07,55,6.80
2010,04,15,07,56,6.90
2010,04,15,07,57,6.90
2010,04,15,07,58,6.90
2010,04,15,07,59,7.00
2010,04,15,08,00,7.00
2010,04,15,08,01,7.00
2010,04,15,08,02,7.10
2010,04,15,08,03,7.10
2010,04,15,08,04,7.20
2010,04,15,08,05,7.20
2010,04,15,08,06,7.20
2010,04,15,08,07,7.20
2010,04,15,08,08,7.20
2010,04,15,08,09,7.20
2010,04,15,08,10,7.30
2010,04,15,08,11,7.40
2010,04,15,08,12,7.40
2010,04,15,08,13,7.50
2010,04,15,08,14,7.60
2010,04,15,08,15,7.70
2010,04,15,08,16,7.70
2010,04,15,08,17,7.70
2010,04,15,08,18,7.80
2010,04,15,08,19,7.80
2010,04,15,08,20,7.90
2010,04,15,08,21,7.90
2010,04,15,08,22,8.00
2010,04,15,08,23,8.00
2010,04,15,08,24,8.10
2010,04,15,08,25,8.10
2010,04,15,08,26,8.20
2010,04,15,08,27,8.20
2010,04,15,08,28,8.20
2010,04,15,08,29,8.30
2010,04,15,08,30,8.40
2010,04,15,08,31,8.50
2010,04,15,08,32,8.50
2010,04,15,08,33,8.60
2010,04,15,08,34,8.70
2010,04,15,08,35,8.80
2010,04,15,08,36,8.90
2010,04,15,08,37,8.90
2010,04,15,08,38,9.00
2010,04,15,08,39,9.20
2010,04,15,08,40,9.30
2010,04,15,08,41,9.40
2010,04,15,08,42,9.50
2010,04,15,08,43,9.50
2010,04,15,08,44,9.60
2010,04,15,08,45,9.70
2010,04,15,08,46,9.80
2010,04,15,08,47,9.90
2010,04,15,08,48,10.00
2010,04,15,08,49,10.10
2010,04,15,08,50,10.20
2010,04,15,08,51,10.30
2010,04,15,08,52,10.40
2010,04,15,08,53,10.50
2010,04,15,08,54,10.60
2010,04,15,08,55,10.70
2010,04,15,08,56,10.80
2010,04,15,08,57,10.80
2010,04,15,08,58,10.90
2010,04,15,08,59,11.00
2010,04,15,09,00,11.00
2010,04,15,09,01,11.00
2010,04,15,09,02,11.10
2010,04,15,09,03,11.20
2010,04,15,09,04,11.20
2010,04,15,09,05,11.20
2010,04,15,09,06,11.20
2010,04,15,09,07,11.20
2010,04,15,09,08,11.20
2010,04,15,09,09,11.30
2010,04,15,09,10,11.30
2010,04,15,09,11,11.40
2010,04,15,09,12,11.40
2010,04,15,09,13,11.40
2010,04,15,09,14,11.40
2010,04,15,09,15,11.50
2010,04,15,09,16,11.50
2010,04,15,09,17,11.60
2010,04,15,09,18,11.60
2010,04,15,09,19,11.60
2010,04,15,09,20,11.70
2010,04,15,09,21,11.80
2010,04,15,09,22,11.90
2010,04,15,09,23,11.90
2010,04,15,09,24,11.90
2010,04,15,09,25,11.90
2010,04,15,09,26,11.90
2010,04,15,09,27,11.90
2010,04,15,09,28,11.90
2010,04,15,09,29,11.90
2010,04,15,09,30,11.90
2010,04,15,09,31,11.90
2010,04,15,09,32,11.90
2010,04,15,09,33,11.90
2010,04,15,09,34,12.00
2010,04,15,09,35,12.10
2010,04,15,09,36,12.10
2010,04,15,09,37,12.20
2010,04,15,09,38,12.20
2010,04,15,09,39,12.20
2010,04,15,09,40,12.20
2010,04,15,09,41,12.20
2010,04,15,09,42,12.10
2010,04,15,09,43,12.10
2010,04,15,09,44,12.10
2010,04,15,09,45,12.10
2010,04,15,09,46,12.10
2010,04,15,09,47,12.10
2010,04,15,09,48,12.10
2010,04,15,09,49,12.10
2010,04,15,09,50,12.10
2010,04,15,09,51,12.10
2010,04,15,09,52,12.10
2010,04,15,09,53,12.20
2010,04,15,09,54,12.20
2010,04,15,09,55,12.30
2010,04,15,09,56,12.40
2010,04,15,09,57,12.40
2010,04,15,09,58,12.50
2010,04,15,09,59,12.50
2010,04,15,10,00,12.60
2010,04,15,10,01,12.60
2010,04,15,10,02,12.60
2010,04,15,10,03,12.60
2010,04,15,10,04,12.60
2010,04,15,10,05,12.70
2010,04,15,10,06,12.70
2010,04,15,10,07,12.70
2010,04,15,10,08,12.70
2010,04,15,10,09,12.70
2010,04,15,10,10,12.80
2010,04,15,10,11,12.80
2010,04,15,10,12,12.70
2010,04,15,10,13,12.70
2010,04,15,10,14,12.60
2010,04,15,10,15,12.60
2010,04,15,10,16,12.70
2010,04,15,10,17,12.60
2010,04,15,10,18,12.60
2010,04,15,10,19,12.50
2010,04,15,10,20,12.50
2010,04,15,10,21,12.40
2010,04,15,10,22,12.40
2010,04,15,10,23,12.30
2010,04,15,10,24,12.30
2010,04,15,10,25,12.30
2010,04,15,10,26,12.30
2010,04,15,10,27,12.30
2010,04,15,10,28,12.40
2010,04,15,10,29,12.40
2010,04,15,10,30,12.50
2010,04,15,10,31,12.60
2010,04,15,10,32,12.60
2010,04,15,10,33,12.70
2010,04,15,10,34,12.70
2010,04,15,10,35,12.80
2010,04,15,10,36,12.90
2010,04,15,10,37,12.90
2010,04,15,10,38,12.90
2010,04,15,10,39,12.90
2010,04,15,10,40,12.90
2010,04,15,10,41,13.00
2010,04,15,10,42,13.00
2010,04,15,10,43,13.10
2010,04,15,10,44,13.10
2010,04,15,10,45,13.20
2010,04,15,10,46,13.20
2010,04,15,10,47,13.10
2010,04,15,10,48,13.10
2010,04,15,10,49,13.20
2010,04,15,10,50,13.30
2010,04,15,10,51,13.30
2010,04,15,10,52,13.30
2010,04,15,10,53,13.40
2010,04,15,10,54,13.40
2010,04,15,10,55,13.40
2010,04,15,10,56,13.40
2010,04,15,10,57,13.40
2010,04,15,10,58,13.40
2010,04,15,10,59,13.40
2010,04,15,11,00,13.40
2010,04,15,11,01,13.30
2010,04,15,11,02,13.40
2010,04,15,11,03,13.40
2010,04,15,11,04,13.40
2010,04,15,11,05,13.30
2010,04,15,11,06,13.30
2010,04,15,11,07,13.40
2010,04,15,11,08,13.50
2010,04,15,11,09,13.50
2010,04,15,11,10,13.60
2010,04,15,11,11,13.60
2010,04,15,11,12,13.60
2010,04,15,11,13,13.60
2010,04,15,11,14,13.50
2010,04,15,11,15,13.50
2010,04,15,11,16,13.40
2010,04,15,11,17,13.40
2010,04,15,11,18,13.40
2010,04,15,11,19,13.40
2010,04,15,11,20,13.50
2010,04,15,11,21,13.50
2010,04,15,11,22,13.50
2010,04,15,11,23,13.40
2010,04,15,11,24,13.30
2010,04,15,11,25,13.30
2010,04,15,11,26,13.30
2010,04,15,11,27,13.40
2010,04,15,11,28,13.50
2010,04,15,11,29,13.60
2010,04,15,11,30,13.70
2010,04,15,11,31,13.80
2010,04,15,11,32,13.80
2010,04,15,11,33,13.80
2010,04,15,11,34,13.80
2010,04,15,11,35,13.80
2010,04,15,11,36,13.70
2010,04,15,11,37,13.70
2010,04,15,11,38,13.70
2010,04,15,11,39,13.70
2010,04,15,11,40,13.80
2010,04,15,11,41,13.80
2010,04,15,11,42,13.70
2010,04,15,11,43,13.80
2010,04,15,11,44,13.80
2010,04,15,11,45,13.80
2010,04,15,11,46,13.90
2010,04,15,11,47,13.90
2010,04,15,11,48,13.90
2010,04,15,11,49,14.00
2010,04,15,11,50,14.00
2010,04,15,11,51,14.00
2010,04,15,11,52,14.00
2010,04,15,11,53,14.00
2010,04,15,11,54,14.00
2010,04,15,11,55,14.00
2010,04,15,11,56,13.90
2010,04,15,11,57,13.90
2010,04,15,11,58,13.90
2010,04,15,11,59,13.90
2010,04,15,12,00,13.80
2010,04,15,12,01,13.80
2010,04,15,12,02,13.70
2010,04,15,12,03,13.60
2010,04,15,12,04,13.60
2010,04,15,12,05,13.50
2010,04,15,12,06,13.50
2010,04,15,12,07,13.50
2010,04,15,12,08,13.40
2010,04,15,12,09,13.40
2010,04,15,12,10,13.30
2010,04,15,12,11,13.30
2010,04,15,12,12,13.30
2010,04,15,12,13,13.30
2010,04,15,12,14,13.30
2010,04,15,12,15,13.40
2010,04,15,12,16,13.50
2010,04,15,12,17,13.50
2010,04,15,12,18,13.60
2010,04,15,12,19,13.70
2010,04,15,12,20,13.80
2010,04,15,12,21,13.90
2010,04,15,12,22,14.00
2010,04,15,12,23,14.00
2010,04,15,12,24,13.90
2010,04,15,12,25,13.80
2010,04,15,12,26,13.70
2010,04,15,12,27,13.60
2010,04,15,12,28,13.60
2010,04,15,12,29,13.60
2010,04,15,12,30,13.60
2010,04,15,12,31,13.60
2010,04,15,12,32,13.70
2010,04,15,12,33,13.70
2010,04,15,12,34,13.80
2010,04,15,12,35,13.80
2010,04,15,12,36,13.80
2010,04,15,12,37,13.80
2010,04,15,12,38,13.80
2010,04,15,12,39,13.90
2010,04,15,12,40,14.00
2010,04,15,12,41,14.10
2010,04,15,12,42,14.10
2010,04,15,12,43,14.20
2010,04,15,12,44,14.20
2010,04,15,12,45,14.30
2010,04,15,12,46,14.40
2010,04,15,12,47,14.40
2010,04,15,12,48,14.50
2010,04,15,12,49,14.60
2010,04,15,12,50,14.70
2010,04,15,12,51,14.80
2010,04,15,12,52,14.90
2010,04,15,12,53,14.80
2010,04,15,12,54,14.70
2010,04,15,12,55,14.60
2010,04,15,12,56,14.50
2010,04,15,12,57,14.60
2010,04,15,12,58,14.60
2010,04,15,12,59,14.60
2010,04,15,13,00,14.60
2010,04,15,13,01,14.60
2010,04,15,13,02,14.60
2010,04,15,13,03,14.50
2010,04,15,13,04,14.50
2010,04,15,13,05,14.40
2010,04,15,13,06,14.30
2010,04,15,13,07,14.30
2010,04,15,13,08,14.30
2010,04,15,13,09,14.30
2010,04,15,13,10,14.30
2010,04,15,13,11,14.20
2010,04,15,13,12,14.20
2010,04,15,13,13,14.10
2010,04,15,13,14,14.10
2010,04,15,13,15,14.00
2010,04,15,13,16,13.90
2010,04,15,13,17,13.80
2010,04,15,13,18,13.80
2010,04,15,13,19,13.80
2010,04,15,13,20,13.80
2010,04,15,13,21,13.80
2010,04,15,13,22,13.90
2010,04,15,13,23,13.90
2010,04,15,13,24,13.90
2010,04,15,13,25,13.80
2010,04,15,13,26,13.80
2010,04,15,13,27,13.80
2010,04,15,13,28,13.70
2010,04,15,13,29,13.60
2010,04,15,13,30,13.50
2010,04,15,13,31,13.40
2010,04,15,13,32,13.40
2010,04,15,13,33,13.40
2010,04,15,13,34,13.40
2010,04,15,13,35,13.40
2010,04,15,13,36,13.30
2010,04,15,13,37,13.30
2010,04,15,13,38,13.30
2010,04,15,13,39,13.20
2010,04,15,13,40,13.20
2010,04,15,13,41,13.20
2010,04,15,13,42,13.30
2010,04,15,13,43,13.30
2010,04,15,13,44,13.30
2010,04,15,13,45,13.30
2010,04,15,13,46,13.30
2010,04,15,13,47,13.30
2010,04,15,13,48,13.30
2010,04,15,13,49,13.30
2010,04,15,13,50,13.30
2010,04,15,13,51,13.30
2010,04,15,13,52,13.30
2010,04,15,13,53,13.40
2010,04,15,13,54,13.40
2010,04,15,13,55,13.50
2010,04,15,13,56,13.50
2010,04,15,13,57,13.40
2010,04,15,13,58,13.50
2010,04,15,13,59,13.40
2010,04,15,14,00,13.40
2010,04,15,14,01,13.40
2010,04,15,14,02,13.50
2010,04,15,14,03,13.50
2010,04,15,14,04,13.60
2010,04,15,14,05,13.70
2010,04,15,14,06,13.70
2010,04,15,14,07,13.80
2010,04,15,14,08,13.90
2010,04,15,14,09,14.00
2010,04,15,14,10,14.00
2010,04,15,14,11,14.10
2010,04,15,14,12,14.10
2010,04,15,14,13,14.20
2010,04,15,14,14,14.20
2010,04,15,14,15,14.20
2010,04,15,14,16,14.10
2010,04,15,14,17,14.10
2010,04,15,14,18,14.00
2010,04,15,14,19,13.90
2010,04,15,14,20,13.90
2010,04,15,14,21,13.80
2010,04,15,14,22,13.80
2010,04,15,14,23,13.80
2010,04,15,14,24,13.80
2010,04,15,14,25,13.80
2010,04,15,14,26,13.90
2010,04,15,14,27,13.90
2010,04,15,14,28,14.00
2010,04,15,14,29,14.10
2010,04,15,14,30,14.10
2010,04,15,14,31,14.20
2010,04,15,14,32,14.30
2010,04,15,14,33,14.40
2010,04,15,14,34,14.40
2010,04,15,14,35,14.40
2010,04,15,14,36,14.50
2010,04,15,14,37,14.50
2010,04,15,14,38,14.50
2010,04,15,14,39,14.60
2010,04,15,14,40,14.70
2010,04,15,14,41,14.70
2010,04,15,14,42,14.80
2010,04,15,14,43,14.80
2010,04,15,14,44,14.70
2010,04,15,14,45,14.70
2010,04,15,14,46,14.60
2010,04,15,14,47,14.60
2010,04,15,14,48,14.50
2010,04,15,14,49,14.40
2010,04,15,14,50,14.40
2010,04,15,14,51,14.30
2010,04,15,14,52,14.20
2010,04,15,14,53,14.20
2010,04,15,14,54,14.10
2010,04,15,14,55,14.00
2010,04,15,14,56,13.90
2010,04,15,14,57,13.90
2010,04,15,14,58,13.80
2010,04,15,14,59,13.80
2010,04,15,15,00,13.70
2010,04,15,15,01,13.60
2010,04,15,15,02,13.60
2010,04,15,15,03,13.60
2010,04,15,15,04,13.60
2010,04,15,15,05,13.60
2010,04,15,15,06,13.60
2010,04,15,15,07,13.60
2010,04,15,15,08,13.60
2010,04,15,15,09,13.60
2010,04,15,15,10,13.60
2010,04,15,15,11,13.60
2010,04,15,15,12,13.60
2010,04,15,15,13,13.70
2010,04,15,15,14,13.70
2010,04,15,15,15,13.70
2010,04,15,15,16,13.80
2010,04,15,15,17,13.80
2010,04,15,15,18,13.90
2010,04,15,15,19,13.90
2010,04,15,15,20,13.90
2010,04,15,15,21,13.90
2010,04,15,15,22,13.90
2010,04,15,15,23,13.90
2010,04,15,15,24,13.90
2010,04,15,15,25,14.00
2010,04,15,15,26,14.00
2010,04,15,15,27,14.10
2010,04,15,15,28,14.10
2010,04,15,15,29,14.20
2010,04,15,15,30,14.20
2010,04,15,15,31,14.30
2010,04,15,15,32,14.30
2010,04,15,15,33,14.40
2010,04,15,15,34,14.50
2010,04,15,15,35,14.60
2010,04,15,15,36,14.60
2010,04,15,15,37,14.70
2010,04,15,15,38,14.70
2010,04,15,15,39,14.70
2010,04,15,15,40,14.70
2010,04,15,15,41,14.70
2010,04,15,15,42,14.60
2010,04,15,15,43,14.60
2010,04,15,15,44,14.60
2010,04,15,15,45,14.50
2010,04,15,15,46,14.40
2010,04,15,15,47,14.30
2010,04,15,15,48,14.30
2010,04,15,15,49,14.20
2010,04,15,15,50,14.20
2010,04,15,15,51,14.10
2010,04,15,15,52,14.10
2010,04,15,15,53,14.10
2010,04,15,15,54,14.00
2010,04,15,15,55,14.00
2010,04,15,15,56,14.00
2010,04,15,15,57,14.00
2010,04,15,15,58,14.00
2010,04,15,15,59,14.00
2010,04,15,16,00,14.00
2010,04,15,16,01,14.00
2010,04,15,16,02,14.10
2010,04,15,16,03,14.10
2010,04,15,16,04,14.10
2010,04,15,16,05,14.20
2010,04,15,16,06,14.20
2010,04,15,16,07,14.30
2010,04,15,16,08,14.30
2010,04,15,16,09,14.30
2010,04,15,16,10,14.40
2010,04,15,16,11,14.40
2010,04,15,16,12,14.40
2010,04,15,16,13,14.50
2010,04,15,16,14,14.50
2010,04,15,16,15,14.60
2010,04,15,16,16,14.60
2010,04,15,16,17,14.60
2010,04,15,16,18,14.70
2010,04,15,16,19,14.70
2010,04,15,16,20,14.70
2010,04,15,16,21,14.70
2010,04,15,16,22,14.70
2010,04,15,16,23,14.70
2010,04,15,16,24,14.70
2010,04,15,16,25,14.70
2010,04,15,16,26,14.80
2010,04,15,16,27,14.80
2010,04,15,16,28,14.80
2010,04,15,16,29,14.80
2010,04,15,16,30,14.80
2010,04,15,16,31,14.90
2010,04,15,16,32,14.80
2010,04,15,16,33,14.40
2010,04,15,16,34,13.90
2010,04,15,16,35,13.50
2010,04,15,16,36,13.20
2010,04,15,16,37,13.00
2010,04,15,16,38,12.90
2010,04,15,16,39,12.80
2010,04,15,16,40,12.80
2010,04,15,16,41,12.80
2010,04,15,16,42,12.80
2010,04,15,16,43,12.90
2010,04,15,16,44,12.90
2010,04,15,16,45,13.00
2010,04,15,16,46,13.10
2010,04,15,16,47,13.10
2010,04,15,16,48,13.10
2010,04,15,16,49,13.20
2010,04,15,16,50,13.20
2010,04,15,16,51,13.20
2010,04,15,16,52,13.20
2010,04,15,16,53,13.30
2010,04,15,16,54,13.30
2010,04,15,16,55,13.30
2010,04,15,16,56,13.30
2010,04,15,16,57,13.30
2010,04,15,16,58,13.40
2010,04,15,16,59,13.40
2010,04,15,17,00,13.40
2010,04,15,17,01,13.40
2010,04,15,17,02,13.40
2010,04,15,17,03,13.40
2010,04,15,17,04,13.50
2010,04,15,17,05,13.50
2010,04,15,17,06,13.40
2010,04,15,17,07,13.40
2010,04,15,17,08,13.50
2010,04,15,17,09,13.50
2010,04,15,17,10,13.50
2010,04,15,17,11,13.50
2010,04,15,17,12,13.50
2010,04,15,17,13,13.40
2010,04,15,17,14,13.40
2010,04,15,17,15,13.40
2010,04,15,17,16,13.40
2010,04,15,17,17,13.40
2010,04,15,17,18,13.40
2010,04,15,17,19,13.40
2010,04,15,17,20,13.40
2010,04,15,17,21,13.50
2010,04,15,17,22,13.50
2010,04,15,17,23,13.50
2010,04,15,17,24,13.50
2010,04,15,17,25,13.60
2010,04,15,17,26,13.60
2010,04,15,17,27,13.60
2010,04,15,17,28,13.70
2010,04,15,17,29,13.70
2010,04,15,17,30,13.70
2010,04,15,17,31,13.80
2010,04,15,17,32,13.80
2010,04,15,17,33,13.80
2010,04,15,17,34,13.90
2010,04,15,17,35,13.90
2010,04,15,17,36,14.00
2010,04,15,17,37,13.90
2010,04,15,17,38,13.90
2010,04,15,17,39,13.70
2010,04,15,17,40,13.60
2010,04,15,17,41,13.50
2010,04,15,17,42,13.40